CW3224 Weather Reports


Display with metric or nautical units.
time (UTC)temp
F
wind
direction
speed
MPH
gust
MPH
rain 1hr
in
rain 24hr
in
rain mn
in
humidity
%
barometer
mb
20220628084204 53 179 0.0 0.0 0.00 0.19 0.00 88 1016.9
20220628083203 53 177 0.0 0.0 0.00 0.19 0.00 88 1016.8
20220628082202 53 177 0.0 0.0 0.00 0.19 0.00 87 1016.8
20220628081202 53 177 0.0 0.0 0.00 0.19 0.00 87 1016.8
20220628080202 54 177 0.0 0.0 0.00 0.19 0.00 87 1016.7
20220628075203 54 177 0.0 0.0 0.00 0.19 0.00 87 1016.7
20220628074201 54 179 0.0 0.0 0.00 0.19 0.00 87 1016.6
20220628073159 55 179 0.0 0.0 0.00 0.19 0.00 87 1016.3
20220628072158 55 179 0.0 0.0 0.00 0.19 0.00 86 1016.3
20220628071155 55 179 0.0 0.0 0.00 0.19 0.00 86 1016.4
20220628070155 55 179 0.0 0.0 0.00 0.19 0.00 86 1016.5
20220628065153 55 179 0.0 0.0 0.00 0.19 0.00 85 1016.5
20220628064153 56 179 0.0 0.0 0.00 0.19 0.00 85 1016.4
20220628063149 56 179 0.0 0.0 0.00 0.19 0.00 85 1016.4
20220628062148 56 179 0.0 0.0 0.00 0.19 0.00 84 1016.4
20220628061147 56 179 0.0 0.0 0.00 0.19 0.00 84 1016.3
20220628060142 57 179 0.0 0.0 0.00 0.19 0.00 84 1015.9
20220628055143 57 179 0.0 0.0 0.00 0.19 0.00 83 1015.9
20220628054143 58 179 0.0 0.0 0.00 0.19 0.00 82 1015.8
20220628053140 58 179 0.0 0.0 0.00 0.19 0.00 82 1015.8
20220628052140 59 179 0.0 0.0 0.00 0.19 0.00 82 1015.8
20220628051135 59 179 0.0 0.0 0.00 0.19 0.00 81 1015.7
20220628050136 60 179 0.0 0.0 0.00 0.19 0.00 81 1015.6
20220628045135 60 179 0.0 1.0 0.00 0.19 0.00 80 1015.6
20220628044137 61 178 0.0 0.0 0.00 0.19 0.00 78 1015.6
20220628043135 61 178 0.0 0.0 0.00 0.19 0.00 78 1015.4
20220628042136 62 178 0.0 0.0 0.00 0.19 0.00 77 1015.4
20220628041137 62 178 0.0 1.0 0.00 0.19 0.00 76 1015.3
20220628040137 62 178 0.0 1.0 0.00 0.19 0.00 78 1015.3
20220628035136 63 179 0.0 0.0 0.00 0.19 0.19 78 1015.3
20220628034126 63 179 0.0 1.0 0.00 0.19 0.19 79 1015.2
20220628033122 64 178 0.0 1.0 0.00 0.19 0.19 80 1015.0
20220628032124 64 178 0.0 2.0 0.00 0.19 0.19 78 1015.0
20220628031122 64 71 0.0 1.0 0.00 0.19 0.19 78 1014.8
20220628030112 64 71 0.0 2.0 0.00 0.19 0.19 79 1014.7
20220628025112 65 144 0.0 3.0 0.00 0.19 0.19 81 1014.7
20220628024112 65 170 0.0 0.0 0.00 0.19 0.19 80 1014.7
20220628023113 65 127 0.0 0.0 0.00 0.19 0.19 81 1014.7
20220628022112 65 126 0.0 0.0 0.00 0.19 0.19 82 1014.7
20220628021113 66 126 0.0 1.0 0.00 0.19 0.19 82 1014.6
20220628020108 66 127 0.0 2.0 0.00 0.19 0.19 83 1014.3
20220628015108 67 193 0.0 2.0 0.00 0.19 0.19 84 1014.3
20220628014111 67 100 0.0 3.0 0.00 0.19 0.19 83 1014.2
20220628013104 67 96 0.0 0.0 0.00 0.19 0.19 83 1014.1
20220628012102 68 96 0.0 1.0 0.00 0.19 0.19 83 1014.1
20220628011054 68 301 0.0 2.0 0.00 0.19 0.19 84 1013.7
20220628010054 69 202 0.0 2.0 0.00 0.19 0.19 84 1013.6
20220628005055 69 202 0.0 2.0 0.00 0.19 0.19 85 1013.6
20220628004053 70 204 0.0 2.0 0.00 0.19 0.19 85 1013.2
20220628003053 70 226 0.0 4.0 0.00 0.19 0.19 86 1013.1
20220628002052 71 191 0.0 0.0 0.00 0.19 0.19 86 1013.1
20220628001050 71 301 0.0 1.0 0.00 0.19 0.19 87 1012.7
20220628000048 72 189 0.0 3.0 0.00 0.19 0.19 88 1012.7
20220627235049 72 192 0.0 0.0 0.00 0.19 0.19 88 1012.7
20220627234049 72 189 0.0 3.0 0.00 0.19 0.19 88 1012.7
20220627233048 72 187 1.0 3.0 0.00 0.19 0.19 89 1012.6
20220627232046 73 173 1.0 5.0 0.00 0.19 0.19 89 1012.6
20220627231046 73 185 0.0 4.0 0.00 0.19 0.19 89 1012.3
20220627230046 73 210 0.0 6.0 0.00 0.19 0.19 89 1012.4
20220627225046 73 204 0.0 2.0 0.00 0.19 0.19 89 1012.4
20220627224046 73 183 1.0 4.0 0.00 0.19 0.19 89 1012.2
20220627223047 73 200 1.0 6.0 0.00 0.19 0.19 89 1012.1
20220627222044 73 180 2.0 5.0 0.00 0.19 0.19 89 1012.1
20220627221044 73 169 1.0 5.0 0.00 0.19 0.19 89 1012.1
20220627220038 73 206 3.0 6.0 0.00 0.19 0.19 89 1011.9
20220627215034 73 209 2.0 7.0 0.00 0.19 0.19 90 1011.9
20220627214036 73 170 2.0 9.0 0.00 0.19 0.19 90 1011.8
20220627213033 73 198 3.0 8.0 0.01 0.19 0.19 90 1011.8
20220627212032 73 208 2.0 6.0 0.01 0.19 0.19 90 1011.8
20220627211033 73 173 2.0 7.0 0.01 0.19 0.19 90 1011.7
20220627210032 73 183 1.0 6.0 0.01 0.19 0.19 89 1011.7
20220627205031 73 196 1.0 6.0 0.01 0.19 0.19 89 1011.7
20220627204029 73 187 2.0 6.0 0.01 0.19 0.19 89 1011.9
20220627203030 74 207 1.0 5.0 0.00 0.18 0.18 89 1012.1
20220627202030 74 133 1.0 4.0 0.00 0.18 0.18 90 1012.1
20220627201029 73 189 2.0 9.0 0.00 0.18 0.18 90 1012.0
20220627200028 73 247 2.0 6.0 0.00 0.18 0.18 90 1012.1
20220627195028 73 142 1.0 5.0 0.00 0.18 0.18 91 1012.1
20220627194029 73 190 2.0 7.0 0.00 0.18 0.18 91 1012.2
20220627193024 73 208 3.0 8.0 0.00 0.18 0.18 91 1012.1
20220627192022 73 214 2.0 7.0 0.00 0.18 0.18 91 1012.1
20220627191017 73 178 1.0 4.0 0.00 0.18 0.18 91 1012.1
20220627190014 73 174 1.0 4.0 0.00 0.18 0.18 91 1012.2
20220627185013 73 189 2.0 7.0 0.00 0.18 0.18 91 1012.2
20220627184013 73 189 2.0 6.0 0.01 0.18 0.18 91 1012.4
20220627183014 72 173 1.0 5.0 0.02 0.18 0.18 91 1012.3
20220627182011 72 173 1.0 4.0 0.03 0.18 0.18 91 1012.3
20220627181012 72 230 2.0 6.0 0.03 0.18 0.18 91 1012.3
20220627180015 72 214 1.0 7.0 0.03 0.18 0.18 91 1012.4
20220627175002 72 208 0.0 6.0 0.03 0.18 0.18 91 1012.4
20220627173959 72 198 1.0 6.0 0.02 0.17 0.18 91 1012.5
20220627172958 72 190 2.0 5.0 0.01 0.16 0.16 91 1012.4
20220627171959 72 220 2.0 8.0 0.01 0.15 0.15 91 1012.4
20220627170958 72 214 3.0 10.0 0.01 0.15 0.15 91 1012.6
20220627165958 72 198 2.0 7.0 0.01 0.15 0.15 91 1012.6
20220627164959 72 185 2.0 8.0 0.01 0.15 0.15 91 1012.6
20220627163959 72 198 3.0 8.0 0.01 0.15 0.15 91 1012.5
20220627162958 72 198 3.0 9.0 0.01 0.15 0.15 91 1012.5
20220627161958 71 193 3.0 7.0 0.00 0.14 0.14 91 1012.5
20220627160958 71 248 2.0 7.0 0.00 0.14 0.14 91 1012.5
20220627155954 71 247 2.0 5.0 0.00 0.14 0.14 90 1012.3
20220627154952 71 193 3.0 11.0 0.00 0.14 0.14 90 1012.3
20220627153953 71 204 3.0 7.0 0.00 0.14 0.14 90 1012.3
20220627152951 71 205 3.0 9.0 0.01 0.14 0.14 90 1012.3
20220627151952 71 195 3.0 9.0 0.05 0.14 0.14 90 1012.3
20220627150951 71 202 3.0 7.0 0.12 0.14 0.14 89 1012.1
20220627145952 71 169 2.0 5.0 0.14 0.14 0.14 89 1012.1
20220627144953 71 203 1.0 5.0 0.14 0.14 0.14 88 1012.1
20220627143951 71 195 2.0 6.0 0.14 0.14 0.14 87 1012.1
20220627142951 71 201 2.0 9.0 0.13 0.13 0.13 86 1012.2
20220627141951 72 175 2.0 8.0 0.09 0.09 0.09 85 1012.2
20220627140950 73 301 4.0 13.0 0.02 0.02 0.04 83 1012.1
20220627135951 73 161 3.0 6.0 0.00 0.00 0.00 81 1012.1
20220627134946 73 215 3.0 11.0 0.00 0.00 0.00 81 1012.1
20220627133945 73 195 4.0 9.0 0.00 0.00 0.00 81 1012.2
20220627132945 73 192 3.0 10.0 0.00 0.00 0.00 81 1012.2
20220627131945 72 218 3.0 9.0 0.00 0.00 0.00 81 1012.2
20220627130946 72 202 3.0 10.0 0.00 0.00 0.00 81 1012.2
20220627125945 72 167 3.0 7.0 0.00 0.00 0.00 81 1012.2
20220627124943 72 208 3.0 8.0 0.00 0.00 0.00 81 1012.2
20220627123945 72 245 3.0 10.0 0.00 0.00 0.00 81 1012.1
20220627122933 72 239 3.0 10.0 0.00 0.00 0.00 81 1012.2
20220627121926 71 204 3.0 9.0 0.00 0.00 0.00 80 1012.2
20220627120923 71 205 4.0 12.0 0.00 0.00 0.00 80 1012.2
20220627115922 71 166 4.0 13.0 0.00 0.00 0.00 80 1012.2
20220627114919 71 217 2.0 9.0 0.00 0.00 0.00 80 1012.2
20220627113915 71 218 3.0 9.0 0.00 0.00 0.00 80 1012.4
20220627112915 70 206 4.0 12.0 0.00 0.00 0.00 80 1012.4
20220627111913 70 187 3.0 11.0 0.00 0.00 0.00 80 1012.4
20220627105907 70 202 3.0 9.0 0.00 0.00 0.00 80 1012.1
20220627104907 70 193 3.0 8.0 0.00 0.00 0.00 80 1012.1
20220627103907 70 180 2.0 6.0 0.00 0.00 0.00 80 1012.3
20220627102907 70 191 2.0 7.0 0.00 0.00 0.00 80 1012.6
20220627101907 69 215 3.0 8.0 0.00 0.00 0.00 80 1012.6
20220627100905 69 217 2.0 10.0 0.00 0.00 0.00 80 1012.6
20220627095901 69 210 3.0 9.0 0.00 0.00 0.00 80 1012.7
20220627094902 69 204 3.0 7.0 0.00 0.00 0.00 80 1012.7
20220627093901 69 214 3.0 12.0 0.00 0.00 0.00 80 1012.8
20220627092904 69 200 2.0 7.0 0.00 0.00 0.00 79 1013.0
20220627091901 69 189 2.0 7.0 0.00 0.00 0.00 79 1013.0
20220627090902 69 216 2.0 7.0 0.00 0.00 0.00 78 1013.1
20220627085901 69 191 2.0 5.0 0.00 0.00 0.00 78 1013.2
20220627084901 69 206 3.0 8.0 0.00 0.00 0.00 77 1013.2